Stations météo

réclame
Mon MeteoGroup
Charterhall, Grande-Bretagne (3158): Température de l'air & dewpoint: 11.07.2018 12:00:00 - 17.07.2018 12:00:00 (BST)Charterhall, Grande-Bretagne (3158): Température de l'air -20cm & Température de l'air -100cm: 11.07.2018 12:00:00 - 17.07.2018 12:00:00 (BST)Charterhall, Grande-Bretagne (3158): Vitesse du vent: 11.07.2018 12:00:00 - 17.07.2018 12:00:00 (BST)Charterhall, Grande-Bretagne (3158): Direction du vent: 11.07.2018 12:00:00 - 17.07.2018 12:00:00 (BST)Charterhall, Grande-Bretagne (3158): reduced air pressure: 11.07.2018 12:00:00 - 17.07.2018 12:00:00 (BST)Charterhall, Grande-Bretagne (3158): visibility: 11.07.2018 12:00:00 - 17.07.2018 12:00:00 (BST)Charterhall, Grande-Bretagne (3158): Ensoleillement: 11.07.2018 12:00:00 - 17.07.2018 12:00:00 (BST)Charterhall, Grande-Bretagne (3158): Quantités de précipitations: 11.07.2018 12:00:00 - 17.07.2018 12:00:00 (BST)
Date & Time tt [°C] td [°C] tt -20cm [°C] tt -100cm [°C] ff [km/h] ff [knt] dd ppp [hPa] vv [km] sd [min] rr [mm]
17.07.2018 12:00:00 16,8 13,4 - - 8 4 SSW 1012,7 45 0 0,0
17.07.2018 11:00:00 15,8 14,0 - - 9 5 SW 1012,7 45 0 0,0
17.07.2018 10:00:00 15,0 14,7 17,9 14,9 11 6 SSW 1012,6 40 6 0,0
17.07.2018 09:00:00 15,3 15,3 - - 9 5 SSW 1012,3 40 24 0,0
17.07.2018 08:00:00 13,3 13,2 - - 9 5 SSW 1012,2 21 18 0,0
17.07.2018 07:00:00 12,4 12,4 - - 8 4 WSW 1012,1 35 18 0,0
17.07.2018 06:00:00 11,3 11,2 - - 9 5 W 1012,0 26 0 0,0
17.07.2018 05:00:00 12,5 12,5 - - 5 3 WSW 1011,8 16 0 0,0
17.07.2018 04:00:00 12,9 12,9 - - 5 3 SW 1012,0 8 0 0,2
17.07.2018 03:00:00 13,2 13,1 - - 4 2 SW 1012,2 22 0 0,0
17.07.2018 02:00:00 13,5 13,5 - - 5 3 SSE 1012,5 16 0 1,4
17.07.2018 01:00:00 14,0 14,0 - - 11 6 SSW 1012,5 11 - 0,0
17.07.2018 00:00:00 14,5 14,5 - - 8 4 WSW 1012,4 22 0 0,2
16.07.2018 23:00:00 14,7 14,7 - - 4 2 SW 1012,5 16 0 0,0
16.07.2018 22:00:00 15,1 15,1 - - 2 1 SW 1012,5 10 0 1,4
16.07.2018 21:00:00 15,2 15,2 - - 4 2 NNW 1012,1 16 0 1,8
16.07.2018 20:00:00 15,6 15,6 - - 11 6 W 1011,9 6 0 1,8
16.07.2018 19:00:00 19,4 12,4 - - 13 7 WSW 1011,2 50 0 0,0
16.07.2018 18:00:00 20,5 12,4 - - 15 8 SW 1010,9 40 6 0,0
16.07.2018 17:00:00 20,4 12,8 - - 16 9 SW 1011,2 50 0 0,0
16.07.2018 16:00:00 20,5 12,3 - - 11 6 WSW 1011,3 50 0 0,0
16.07.2018 15:00:00 20,6 12,3 - - 15 8 SSW 1011,4 45 12 0,0
16.07.2018 14:00:00 19,5 14,2 - - 9 5 W 1011,6 50 0 0,0
16.07.2018 13:00:00 19,0 15,1 - - 13 7 W 1011,6 50 0 0,0
16.07.2018 12:00:00 19,5 15,3 - - 16 9 SSW 1011,3 50 0 0,0
16.07.2018 11:00:00 18,3 17,3 - - 16 9 SSW 1011,2 40 0 0,0
16.07.2018 10:00:00 17,2 17,2 18,2 14,7 15 8 SSW 1011,2 25 0 0,2
16.07.2018 09:00:00 16,9 16,9 - - 9 5 SSW 1011,0 13 0 0,0
16.07.2018 08:00:00 16,2 16,2 - - 9 5 SSW 1011,1 35 0 0,2
16.07.2018 07:00:00 16,2 16,2 - - 15 8 SSW 1010,9 23 0 0,0
16.07.2018 06:00:00 15,7 15,7 - - 5 3 WSW 1011,0 40 0 0,0
16.07.2018 05:00:00 15,6 15,6 - - 8 4 SSE 1011,2 28 0 0,0
16.07.2018 04:00:00 16,1 16,1 - - 13 7 SSW 1011,4 50 0 0,0
16.07.2018 03:00:00 16,4 16,4 - - 9 5 S 1011,8 45 0 0,0
16.07.2018 02:00:00 16,7 16,4 - - 21 11 SSW 1012,0 50 0 0,0
16.07.2018 01:00:00 15,6 15,6 - - 4 2 S 1012,2 45 - 0,0
16.07.2018 00:00:00 15,0 15,0 - - 9 5 SSW 1012,5 45 0 0,0
15.07.2018 23:00:00 15,2 14,8 - - 8 4 SSW 1012,5 40 0 0,0
15.07.2018 22:00:00 16,0 13,5 - - 5 3 S 1012,5 45 6 0,0
15.07.2018 21:00:00 18,2 13,6 - - 15 8 SW 1012,4 50 36 0,0
15.07.2018 20:00:00 20,6 13,3 - - 18 10 SW 1012,1 50 36 0,0
15.07.2018 19:00:00 20,9 13,6 - - 21 11 SW 1012,2 50 48 0,0
15.07.2018 18:00:00 21,7 13,0 - - 26 14 WSW 1012,5 50 60 0,0
15.07.2018 17:00:00 21,7 14,5 - - 26 14 WSW 1012,8 50 54 0,0
15.07.2018 16:00:00 23,3 13,5 - - 29 16 SW 1012,5 45 60 0,0
15.07.2018 15:00:00 24,8 12,4 - - 24 13 SW 1012,3 40 60 0,0
15.07.2018 14:00:00 25,4 12,8 - - 18 10 SW 1012,3 40 60 0,0
15.07.2018 13:00:00 24,7 14,4 - - 22 12 SSW 1012,8 50 60 0,0
15.07.2018 12:00:00 23,5 14,4 - - 22 12 SW 1013,0 50 60 0,0
15.07.2018 11:00:00 22,5 16,1 - - 15 8 SW 1013,4 45 60 0,0
15.07.2018 10:00:00 20,8 14,5 17,7 14,7 22 12 SW 1013,7 40 60 0,0
15.07.2018 09:00:00 18,9 14,4 - - 21 11 SW 1013,9 45 60 0,0
15.07.2018 08:00:00 17,9 15,0 - - 21 11 SW 1014,0 40 36 0,0
15.07.2018 07:00:00 16,3 15,5 - - 22 12 SW 1014,3 45 6 0,0
15.07.2018 06:00:00 14,3 14,2 - - 11 6 SSW 1014,2 45 0 0,0
15.07.2018 05:00:00 13,6 13,6 - - 9 5 SSW 1014,4 22 0 0,0
15.07.2018 04:00:00 13,5 13,4 - - 8 4 SW 1014,8 30 0 0,0
15.07.2018 03:00:00 13,1 13,1 - - 9 5 WSW 1014,9 30 0 0,0
15.07.2018 02:00:00 13,2 13,2 - - 11 6 WSW 1015,2 50 0 0,0
15.07.2018 01:00:00 13,6 13,6 - - 13 7 SW 1015,3 50 - 0,0
15.07.2018 00:00:00 14,1 12,5 - - 15 8 SW 1015,7 50 0 0,0
14.07.2018 23:00:00 15,2 12,0 - - 16 9 SW 1015,7 45 0 0,0
14.07.2018 22:00:00 15,9 11,9 - - 13 7 SW 1015,6 50 6 0,0
14.07.2018 21:00:00 18,4 12,1 - - 18 10 SW 1015,5 50 48 0,0
14.07.2018 20:00:00 20,3 12,2 - - 26 14 SW 1015,3 35 60 0,0
14.07.2018 19:00:00 20,6 13,3 - - 29 16 SSW 1015,4 50 60 0,0
14.07.2018 18:00:00 21,6 14,0 - - 28 15 SSW 1015,4 35 60 0,0
14.07.2018 17:00:00 23,2 14,6 - - 26 14 SW 1015,4 45 60 0,0
14.07.2018 16:00:00 22,4 13,3 - - 26 14 SW 1015,8 50 54 0,0
14.07.2018 15:00:00 23,8 13,2 - - 28 15 SW 1016,2 40 60 0,0
14.07.2018 14:00:00 23,8 13,0 - - 24 13 SW 1016,6 40 60 0,0
14.07.2018 13:00:00 23,5 13,7 - - 22 12 SW 1016,7 40 60 0,0
14.07.2018 12:00:00 21,7 13,6 - - 21 11 SW 1017,2 45 48 0,0
14.07.2018 11:00:00 20,5 12,9 - - 18 10 SW 1017,6 40 54 0,0
14.07.2018 10:00:00 19,5 14,8 17,7 14,7 15 8 SSW 1018,0 40 60 0,0
14.07.2018 09:00:00 17,4 15,8 - - 15 8 S 1018,5 45 60 0,0
14.07.2018 08:00:00 15,2 15,2 - - 18 10 SW 1018,7 45 60 0,0
14.07.2018 07:00:00 14,0 14,0 - - 13 7 SW 1018,8 23 42 0,0
14.07.2018 06:00:00 13,2 13,2 - - 9 5 SW 1018,9 9 0 0,0
14.07.2018 05:00:00 12,6 12,6 - - 8 4 SW 1018,9 7 0 0,0
14.07.2018 04:00:00 13,0 13,0 - - 9 5 SW 1019,4 9 0 0,0
14.07.2018 03:00:00 12,6 12,5 - - 9 5 SW 1019,6 10 0 0,0
14.07.2018 02:00:00 13,1 13,1 - - 8 4 W 1019,6 9 0 0,0
14.07.2018 01:00:00 13,9 13,9 - - 8 4 W 1019,9 9 - 0,0
14.07.2018 00:00:00 14,0 13,9 - - 9 5 SW 1020,1 12 0 0,0
13.07.2018 23:00:00 14,5 14,5 - - 4 2 SW 1020,1 14 0 0,0
13.07.2018 22:00:00 16,5 16,5 - - 4 2 SW 1020,0 13 6 0,0
13.07.2018 21:00:00 17,8 17,8 - - 2 1 SE 1019,6 10 30 0,0
13.07.2018 20:00:00 17,4 17,4 - - 2 1 E 1019,7 12 0 0,8
13.07.2018 19:00:00 17,4 17,4 - - 2 1 N 1019,9 - 0 6,6
13.07.2018 18:00:00 18,2 15,2 - - 9 5 WSW 1020,2 - 0 0,0
13.07.2018 17:00:00 20,8 13,7 - - 11 6 S 1019,9 50 6 0,0
13.07.2018 16:00:00 21,8 14,0 - - 13 7 SSW 1020,3 45 0 0,0
13.07.2018 15:00:00 21,2 13,9 - - 13 7 S 1020,8 45 0 0,0
13.07.2018 14:00:00 21,3 12,5 - - 8 4 SW 1021,1 50 42 0,0
13.07.2018 13:00:00 20,8 13,5 - - 8 4 S 1021,5 40 18 0,0
13.07.2018 12:00:00 20,2 13,2 - - 5 3 SW 1021,8 50 18 0,0
13.07.2018 11:00:00 18,2 12,4 - - 5 3 S 1022,1 45 36 0,0
13.07.2018 10:00:00 17,9 12,8 17,4 14,7 8 4 SSE 1022,2 28 60 0,0
13.07.2018 09:00:00 16,5 14,0 - - 5 3 ESE 1022,4 50 30 0,0
13.07.2018 08:00:00 14,9 14,6 - - 8 4 E 1022,8 50 0 0,0
13.07.2018 07:00:00 13,9 13,9 - - 4 2 E 1022,9 22 0 0,0
13.07.2018 06:00:00 13,4 13,3 - - 4 2 ENE 1022,9 17 0 0,0
13.07.2018 05:00:00 12,2 12,1 - - 5 3 N 1023,1 16 0 0,0
13.07.2018 04:00:00 13,0 13,0 - - 5 3 ENE 1022,8 18 0 0,0
13.07.2018 03:00:00 13,2 13,2 - - 5 3 NNW 1023,3 27 0 0,0
13.07.2018 02:00:00 13,1 13,1 - - 4 2 N 1023,4 30 0 0,0
13.07.2018 01:00:00 13,1 13,1 - - 5 3 N 1023,7 45 - 0,0
13.07.2018 00:00:00 13,0 12,9 - - 5 3 NE 1023,9 21 0 0,0
12.07.2018 23:00:00 13,1 13,1 - - 4 2 ENE 1023,9 30 0 0,0
12.07.2018 22:00:00 13,7 13,7 - - 8 4 ENE 1023,6 35 0 0,0
12.07.2018 21:00:00 14,2 13,4 - - 11 6 ENE 1023,4 50 0 0,0
12.07.2018 20:00:00 15,0 12,4 - - 11 6 ENE 1023,2 45 0 0,0
12.07.2018 19:00:00 15,7 11,9 - - 15 8 ENE 1022,9 50 0 0,0
12.07.2018 18:00:00 16,8 11,7 - - 15 8 ENE 1022,9 45 0 0,0
12.07.2018 17:00:00 17,7 12,4 - - 13 7 ENE 1022,9 45 0 0,0
12.07.2018 16:00:00 17,0 12,3 - - 11 6 NE 1023,3 50 0 0,0
12.07.2018 15:00:00 15,9 13,8 - - 4 2 ESE 1023,5 45 0 0,0
12.07.2018 14:00:00 15,6 13,7 - - 4 2 E 1023,7 40 0 0,0
12.07.2018 13:00:00 15,4 14,1 - - 5 3 E 1023,6 50 0 0,0
12.07.2018 12:00:00 15,6 12,6 - - 4 2 E 1023,6 50 0 0,0
12.07.2018 11:00:00 15,3 14,5 - - 4 2 S 1023,6 50 0 0,0
12.07.2018 10:00:00 14,7 14,6 17,7 14,7 4 2 SE 1023,5 45 0 0,0
12.07.2018 09:00:00 14,2 14,2 - - 5 3 SSE 1023,5 30 0 0,0
12.07.2018 08:00:00 13,6 13,5 - - 4 2 E 1023,4 30 0 0,4
12.07.2018 07:00:00 13,2 13,2 - - 5 3 E 1023,3 2,2 0 0,0
12.07.2018 06:00:00 13,3 13,3 - - 2 1 N 1023,1 35 0 0,0
12.07.2018 05:00:00 13,0 13,0 - - 2 1 NE 1023,2 50 0 0,0
12.07.2018 04:00:00 13,3 13,3 - - 2 1 NW 1023,2 50 0 0,0
12.07.2018 03:00:00 13,5 13,0 - - 2 1 NNE 1023,3 50 0 0,0
12.07.2018 02:00:00 13,5 12,9 - - 4 2 NNE 1023,6 50 0 0,0
12.07.2018 01:00:00 13,3 12,7 - - 5 3 NNE 1023,6 50 - 0,0
12.07.2018 00:00:00 13,1 12,7 - - 8 4 NE 1023,8 50 0 0,0
11.07.2018 23:00:00 12,3 12,3 - - 8 4 NNE 1023,8 50 0 0,0
11.07.2018 22:00:00 12,1 11,4 - - 8 4 ENE 1023,5 50 0 0,0
11.07.2018 21:00:00 14,0 11,0 - - 11 6 E 1023,0 50 12 0,0
11.07.2018 20:00:00 15,8 10,9 - - 15 8 ENE 1023,0 50 54 0,0
11.07.2018 19:00:00 18,1 11,9 - - 11 6 E 1022,6 50 60 0,0
11.07.2018 18:00:00 18,5 11,6 - - 13 7 ENE 1022,7 50 60 0,0
11.07.2018 17:00:00 18,4 11,9 - - 16 9 ENE 1022,8 40 54 0,0
11.07.2018 16:00:00 19,0 11,8 - - 13 7 ENE 1022,8 35 60 0,0
11.07.2018 15:00:00 19,2 12,1 - - 11 6 ENE 1022,9 35 54 0,0
11.07.2018 14:00:00 18,9 12,0 - - 18 10 E 1023,1 45 48 0,0
11.07.2018 13:00:00 18,6 11,7 - - 11 6 E 1023,3 50 42 0,0
11.07.2018 12:00:00 17,9 11,4 - - 11 6 E 1023,6 40 36 0,0

tt = Température de l'air
td = dewpoint
tt -20cm = Température de l'air -20cm
tt -100cm = Température de l'air -100cm
ff = Vitesse du vent
dd = Direction du vent
ppp = reduced air pressure
vv = visibility
sd = Ensoleillement
rr = Quantités de précipitations

stations d'obs. à proximité